Regional Weather Roundup
Issued by NWS

Home | Current Version | Previous Version | Graphics & Text | Print | Product List | Glossary On
Versions: 1 2 3 4 5 6 7 8 9 10 11 12 13 14 15 16 17 18 19 20 21 22 23 24 25 26 27 28 29 30 31 32 33 34 35 36 37 38 39 40 41 42 43 44 45 46 47 48 49 50
000
ASUS43 KLOT 212204
RWRIL

ILLINOIS REGIONAL WEATHER ROUNDUP
NATIONAL WEATHER SERVICE CHICAGO/ROMEOVILLE IL
500 PM CDT THU SEP 21 2017

NOTE: "FAIR" INDICATES FEW OR NO CLOUDS BELOW 12,000 FEET WITH NO
SIGNIFICANT WEATHER AND/OR OBSTRUCTIONS TO VISIBILITY.

* THESE STATIONS ARE NOT UNDER NWS QUALITY CONTROL. THEY ALSO MAY NOT
  REPORT WEATHER SUCH AS PRECIPITATION OR FOG.

ILZ001-002-007-009-015-016-024-212300-
NORTHWEST ILLINOIS

CITY           SKY/WX    TMP DP  RH WIND       PRES   REMARKS
MOLINE         CLOUDY    85  69  58 S3        29.95S HX  89
STERLING*      CLOUDY    85  68  56 VRB3      29.97S HX  88
SAVANNA*       MOSUNNY   83  67  59 SE6       29.95F HX  85
$$

ILZ003-004-008-010-011-017-018-212300-
NORTH CENTRAL ILLINOIS

CITY           SKY/WX    TMP DP  RH WIND       PRES   REMARKS
ROCKFORD       PTSUNNY   87  65  47 S14       29.98S HX  89
FREEPORT*      CLOUDY    84  63  49 S8        29.99S HX  85
ROCHELLE*      PTSUNNY   87  68  52 S9        29.99S HX  91
DE KALB*       CLOUDY    86  66  51 S7        30.00S HX  88
$$

ILZ005-006-012>014-019>023-212300-
NORTHEAST ILLINOIS

CITY           SKY/WX    TMP DP  RH WIND       PRES   REMARKS
CHICAGO-OHARE  PTSUNNY   93  63  36 S10       29.97S HX  94
CHICAGO-MIDWAY MOSUNNY   93  67  42 SW8       29.97S HX  96
AURORA         PTSUNNY   87  69  54 S6        29.98F HX  91
LANSING*       MOSUNNY   90  73  57 S10       29.99S HX  98
JOLIET*        CLOUDY    89  73  58 S3        29.98S HX  97
WAUKEGAN       MOSUNNY   81  71  71 SE6       29.98F HX  85
DUPAGE AIRPORT SUNNY     89  66  46 S9        29.97F HX  91
KANKAKEE*      MOSUNNY   87  71  57 S3        30.00S HX  93
WHEELING       SUNNY     88  69  53 E6        29.99S HX  92
NORTHERLY ISL    N/A     79  68  69 E2          N/A  HX  81
$$

LMZ740>746-212300-
SOUTHERN LAKE MICHIGAN

STATION/POSITION SKY/WX   TEMP    WIND        PRES    VSBY  WAVE
                          AIR SEA DIR/SP/G                  HT/PER
                          (F)     (DEG/KT/KT) (MB)    (MI)  (FT/S)
SOUTHERN BUOY              72 71  140/  6/  6 1015.9          0
WILMETTE HARBOR            73 71  130/  4/  6   N/A           1/ 2
HARRISON CRIB              83     100/ 14/ 15   N/A
BURNHAM HARBOR             79                   N/A
CALUMET HARBOR             79      90/  5/ 10 1014.7F
BURNS HARBOR               77      80/ 12/ 14 1015.9F
MICHIGAN CITY              74      50/ 12/ 12   N/A
MICHIGAN CITY 6N           74 71   90/  8/ 10   N/A           1
ST. JOSEPH                 75 73   70/  6/  6 1015.7F         0
$$

ILZ025>027-034>036-040-047-049-050-058-095>099-212300-
WEST-CENTRAL ILLINOIS

CITY           SKY/WX    TMP DP  RH WIND       PRES   REMARKS
QUINCY         CLOUDY    87  71  58 SE14      29.94F HX  93
GALESBURG*     CLOUDY    83  70  64 S8        29.98S HX  86
MACOMB*        CLOUDY    83  70  64 S5        29.99S HX  87
$$

ILZ028>032-037-038-041>044-048-051>054-059>061-212300-
CENTRAL ILLINOIS

CITY           SKY/WX    TMP DP  RH WIND       PRES   REMARKS
BLOOMINGTON    CLOUDY    88  71  57 SE10      30.00F HX  94
DECATUR        MOSUNNY   92  66  42 SW12      29.98S HX  94
PEORIA         CLOUDY    90  70  51 SW8       29.96F HX  95
LACON*         CLOUDY    89  72  56 SE5       29.96F HX  95
LINCOLN*       CLOUDY    92  70  49 S9        29.97S HX  98
SPRINGFIELD    CLOUDY    90  70  51 S7        29.98R HX  95
TAYLORVILLE    NOT AVBL
$$

ILZ033-039-045-046-055>057-062-063-212300-
EAST-CENTRAL ILLINOIS

CITY           SKY/WX    TMP DP  RH WIND       PRES   REMARKS
CHAMPAIGN      CLOUDY    92  67  43 S9        30.00S HX  95
MATTOON        CLOUDY    90  68  48 S6        29.99S HX  94
PARIS*         MOSUNNY   93  68  43 S9        30.01S HX  97
$$

ILZ079-100>102-212300-
SOUTHWEST ILLINOIS

CITY           SKY/WX    TMP DP  RH WIND       PRES   REMARKS
ALTON          CLOUDY    88  72  58 SE10      29.98S HX  94
BELLEVILLE     SUNNY     89  65  44 S8        30.00S HX  90
CAHOKIA*       CLOUDY    91  68  46 SE9       29.96S HX  95
SPARTA*        CLOUDY    89  70  52 SE7       30.00S HX  94
$$

ILZ064>066-069>071-074>076-080>082-084>086-088>090-092>094-212300-
SOUTH-CENTRAL ILLINOIS

CITY           SKY/WX    TMP DP  RH WIND       PRES   REMARKS
CARBONDALE     CLOUDY    88  70  55 SW7       29.98F HX  93
MARION         PTSUNNY   91  66  43 S9        30.00F HX  94
MT. VERNON       N/A     89  69  51 SW8       29.99F HX  93
CENTRALIA*     PTSUNNY   90  68  48 S6        29.99R HX  93
SALEM*         CLOUDY    91  65  42 S5        29.99S HX  93
METROPOLIS*    SUNNY     92  70  48 SE3       29.99F HX  97
$$

ILZ067-068-072-073-078-083-087-091-212300-
SOUTHEAST ILLINOIS

CITY           SKY/WX    TMP DP  RH WIND       PRES   REMARKS
LAWRENCEVILLE  SUNNY     93  67  42 S8        30.00S HX  96
FLORA*         SUNNY     95  65  36 SW8       29.99S HX  97
FAIRFIELD*     SUNNY     93  64  37 S6        29.99S HX  94
HARRISBURG*    MOSUNNY   94  67  40 S7        29.99S HX  97
ROBINSON*      SUNNY     91  67  44 S7        30.00F HX  95
CARMI*         SUNNY     92  68  45 SE9       29.99S HX  96
$$

ABBREVIATIONS USED IN REMARKS
   TC - TEMPERATURE IN CELSIUS
  WCI - WIND CHILL INDEX
   HX - HEAT INDEX
  VSB - VISIBILITY
$$





USA.gov is the U.S. government's official web portal to all federal, state and local government web resources and services.